Погода в Охотске

Погода в Охотске : погода сейчас, прогноз погоды и архив. Всё, что Вы хотите узнать о погоде в Охотске!

Хотите узнать прогноз погоды в Охотске? Тогда Вам сюда: Погода в Охотске

Поиск расширенной информации на нашем сайте:

Другие новости

Новости СМИ2

Главная страница сайта

Новости сайта

03.07.2017

Напоминаем, что на нашем специализированном сайте Метеоцентр.Азия вы можете получить высокодетализированные автоматические прогнозы погоды по пунктам России, СНГ и мира в авиационном формате (включающие направление и скорость ветра, видимость, явления погоды, количество и форму облачности, нижнюю и верхнюю границу облачности).

Рекомендуем: сайт знакомств владикавказ подробнее mylove.ru сайт знакомств

Погода в Охотске - сегодня

Время (UTC), дата Ветер
(°,м/с) 
Видим.   Явления Облачность Т
(°С)
Тd
(°С)
f(%) Тe
(°С)
Pmin
(гПа)
dP
(гПа)
Po
(мм)
O2
(г/м3)
Тmin Tmax R s Состояние
почвы
03 12.12.17 360 (С) 6-11{13}  2000 м  ливневой снег  10/10 600 м кучево-дожд. 
[Cb cap]
-8.4 -9.4 92 -13  1020.1  0.1  764  319           
06 12.12.17 360 (С) 6{11}  4000 м  слаб. ливневой снег  10/10 600 м кучево-дожд. 
[Cb cap]
-8.1 -9.1 92 -13  1021.5  1.4  766  319           
09 12.12.17 350 (С) 5{10}  2000 м  ливневой снег  10/10 600 м кучево-дожд. 
[Cb cap]
-8.5 -9.4 93 -13  1022.6  1.1  766  320    -8.1     
12 12.12.17 360 (С) 2000 м  ливневой снег  10/10 600 м кучево-дожд. 
[Cb cap]
-8.9 -9.8 93 -14  1023.1  0.5  767  320           
15 12.12.17 360 (С) 6{10}  4000 м  слаб. ливневой снег  10/10 600 м кучево-дожд. 
[Cb cap]
-9.3 -10.4 92 -15  1023.3  0.2  767  321           
18 12.12.17 010 (С) 20000 м  позёмок{ливн. осадки}  9/9 600 м кучево-дожд. 
[Cb calv]
-11.3 -14.7 76 -17  1022.9  -0.4  767  324           
21 12.12.17 010 (С) 4{10}  20000 м    8/5 600 м кучево-дожд., средняя, верхняя 
[Cb calv|Ac trans|Ci fib]
-14.8 -17.9 77 -19  1022.2  -0.7  766  328  -14.8    28  неравномерный
сухой снег
100% 
00 13.12.17 030 (СВ) 20000 м    4/0 средняя, верхняя 
[Ac trans|Ci fib]
-14.7 -18.2 75 -19  1022.6  0.4  766  328  -15.4         
03 13.12.17 030 (СВ) 20000 м    1/0 верхняя 
[Ci fib]
-13.9 -18.1 71 -18  1021.8  -0.8  766  327           
06 13.12.17 020 (С) 20000 м    3/0 верхняя 
[Ci fib]
-14.8 -18.5 73 -19  1022.2  0.4  766  328           
09 13.12.17 020 (С) 20000 м    3/0 верхняя 
[Ci fib]
-15.7 -19.9 70 -21  1022  -0.2  766  329    -13.4       
12 13.12.17 030 (СВ) 20000 м    3/0 верхняя 
[Ci fib]
-17.2 -21.2 71 -22  1021.5  -0.4  766  331           
15 13.12.17 030 (СВ) 20000 м    6/0 средняя, верхняя 
[Ac und|Ci fib]
-17.7 -22.2 68 -24  1020.9  -0.6  765  331           
18 13.12.17 020 (С) 20000 м    3/0 средняя 
[Ac trans]
-17.9 -22.2 69 -24  1020.3  -0.6  765  331           
21 13.12.17 020 (С) 20000 м    8/0 средняя, верхняя 
[Ac und|Ci fib]
-17 -21.7 67 -23  1019.7  -0.7  764  330  -18.6      26  неравномерный
сухой снег
100% 
00 14.12.17 010 (С) 20000 м    10/3 600 м средняя, верхняя 
[Sc|Ac trans|Ci fib]
-18.7 -22.8 70 -24  1020  0.3  764  332  -18.7         
03 14.12.17 010 (С) 20000 м    10/3 600 м средняя, верхняя 
[Sc|Ac lent|Cc]
-17.7 -22.1 68 -22  1019.9  0.1  764  331           
06 14.12.17 020 (С) 20000 м    10/1 600 м средняя, верхняя 
[Sc|Ac lent|Ci fib]
-18.6 -22.3 73 -24  1019.8  764  332           
09 14.12.17 010 (С) 20000 м    6/0 средняя, верхняя 
[Ac lent|Ci fib]
-21.2 -24.7 73 -27  1019.6  -0.2  764  336    -16.8       
12 14.12.17 010 (С) 20000 м    6/0 верхняя 
[Ci fib]
-21.1 -25.6 67 -27  1018.9  -0.7  764  335           
15 14.12.17 020 (С) 20000 м    4/0 верхняя 
[Ci fib]
-22.4 -26.8 67 -27  1017.7  -1.2  763  337           
18 14.12.17 020 (С) 20000 м    6/0 верхняя 
[Ci fib]
-21.9 -26.8 64 -28  1017.7  -1.7  761  335           
00 15.12.17 020 (С) 20000 м    10/0 средняя, верхняя 
[Ac und|Cs]
-20.7 -26.5 60 -28  1012.3  -1.8  759  333           
03 15.12.17 020 (С) 20000 м    10/3 600 м средняя, верхняя 
[Sc|Ac und|Cs]
-18.5 -25 57 -25  1010.9  -1.3  758  329           
06 15.12.17 020 (С) 20000 м    10/4 600 м средняя, верхняя 
[Sc|Ac und|Cs]
-18.6 -22 75 -24  1011.2  0.3  758  329           
Время (UTC), дата Ветер
(°,м/с) 
Видим.   Явления Облачность Т
(°С)
Тd
(°С)
f(%) Тe
(°С)
Pmin
(гПа)
dP
(гПа)
Po
(мм)
O2
(г/м3)
Тmin Tmax R s Состояние
почвы

Для получения пояснительной информации подведите курсор к названию столбца.

ПОГОДА в Охотске - архив

Всё, что Вы хотите узнать о погоде в Охотске - удобно и подробно!

Выберите нужную дату (начиная с 1 января 2015* года) и нажмите кнопку "Найти".
Будут отображены архивные сводки погоды по пункту Охотск, начиная с указанной даты.


Отображать данные в формате CSV (для использования в таблицах Excel)


Внимание! Наш архив погоды предназначен исключительно для личного некоммерческого использования в познавательных целях. Если Вам необходимы официальные справки о состоянии погоды (для производственных, юридических, коммерческих и т.п. целей), обращайтесь в органы Росгидромета.

*Примечание: данная дата относится к архиву по метеостанциям СССР (Россия, СНГ, Балтия).
Архив по метеостанциям Зарубежной Европы и Азии (кроме Китая) хранится 10 дней, по другим регионам земного шара (Китай, Африка, Америка, Австралия, Океания) - 1 день.

Охотск - район местоположения метеостанции


Название, широта, долгота, высота метеостанции:
Охотск 59.4°ш. 143.2°д. 6 м над ур. моря [Российская Федерация]

Дополнительная информация

В oтличие oт бoльшинства пoгoдных сайтoв мы публикуем пoдрoбную метеoинфoрмацию в детальнoм прoфессиoнальнoм фoрмате.

Характеристики температуры и влажнoсти вoздуха измеряются на высoте 2 м в тени вдали oт зданий и деревьев.
Скoрoсть ветра измеряется на высoте 10 м (на урoвне рoста челoвека скoрoсть ветра ниже в 1.5-2 раза). Если метеoстанция нахoдится в гoрoде или в лесу, тo скoрoсть ветра занижена на 2-4 м/с пo сравнению с oткрытым местoм. Скoрoсть ветра над акватoриями крупных рек и oзёр, а также на вершинах хoлмoв на 2-5 м/с выше, чем в oбычных услoвиях.
Атмoсфернoе давление в разных тoчках местнoсти мoжет значительнo oтличаться oт давления на метеoстанции, в зависимoсти oт услoвий рельефа (при пoдъёме на 10 м давление пoнижается примернo на 1 мм рт.ст.).